TWStats

Worldsbr142PlayersTribesLatest EnnoblementsWarsRivalriesCompare
Search

TWStatsTWStats
br142
Open
57,352917144,443

Venom

Venom
#17 points
Compare
HomeMembersHistoryEnnoblementsTribe changesWars
Today''s statistics

No comparisons available for this period. This may mean there are no historical snapshots or that there have been no changes in member data.

PlayerVillagesLast active
No records to display
1bomba pet5,743 (647)10 (-)0 (-)0 (-)0 (-)5/10/26, 12:01 PM
2WOVENWAVEROGUE5,694 (686)10 (-)0 (-)0 (-)0 (-)5/10/26, 12:01 PM
3portobelo5,694 (648)10 (-)0 (-)0 (-)0 (-)5/10/26, 12:01 PM
4Spezliohea5,694 (652)10 (-)0 (-)0 (-)0 (-)5/10/26, 10:02 AM
5Sono5,694 (653)10 (-)0 (-)0 (-)0 (-)5/10/26, 12:01 PM
6KINETICGUNDAM3675,653 (713)10 (-)0 (-)0 (-)0 (-)5/10/26, 12:01 PM
7ETHEREALWIZARD5,653 (676)10 (-)0 (-)0 (-)0 (-)5/10/26, 11:02 AM
8folcloal5,653 (694)10 (-)0 (-)0 (-)0 (-)5/10/26, 11:02 AM
9XasmeiVoid5,653 (692)10 (-)0 (-)0 (-)0 (-)5/10/26, 11:03 AM
10Robinson Samf5,653 (707)10 (-)0 (-)0 (-)0 (-)5/10/26, 12:01 PM
11QUANTUMMONARCH895,653 (682)10 (-)0 (-)0 (-)0 (-)5/10/26, 12:01 PM
12QiafeguvriaPrime82975,653 (720)10 (-)0 (-)0 (-)0 (-)5/10/26, 12:02 PM
13BrogrisneastaiFlux5,653 (691)10 (-)0 (-)0 (-)0 (-)5/10/26, 12:02 PM
14MYSTICMYSTIC525,653 (685)10 (-)0 (-)0 (-)0 (-)5/10/26, 12:01 PM
15arcanedragon7525,653 (684)10 (-)0 (-)0 (-)0 (-)5/10/26, 12:01 PM
16JatocreaziaNova5,619 (719)10 (-)0 (-)0 (-)0 (-)5/10/26, 10:02 AM
17Daipeayx93385,619 (745)10 (-)0 (-)0 (-)0 (-)5/10/26, 12:02 PM
18Vroufroriyx35035,619 (718)10 (-)0 (-)0 (-)0 (-)5/10/26, 12:02 PM
19Struprai5,619 (750)10 (-)0 (-)0 (-)0 (-)5/10/26, 12:02 PM
20cpktnwt5,591 (742)10 (-)0 (-)0 (-)0 (-)5/10/26, 11:02 AM
21ThunderSpecteR7255,591 (738)10 (-)0 (-)0 (-)0 (-)5/10/26, 12:01 PM
22galacticsummoner2395,591 (735)10 (-)0 (-)0 (-)0 (-)5/10/26, 11:02 AM
23BlazingDemoN905,591 (736)10 (-)0 (-)0 (-)0 (-)5/10/26, 12:01 PM
24Grovraibrizeyx6105,591 (748)10 (-)0 (-)0 (-)0 (-)5/10/26, 11:03 AM
25Hiaqeistreiax5,591 (749)10 (-)0 (-)0 (-)0 (-)5/10/26, 12:02 PM
26ShadowPhoenix5,591 (733)10 (-)0 (-)0 (-)0 (-)5/10/26, 12:01 PM
27BousuqaabruZero5,591 (747)10 (-)0 (-)0 (-)0 (-)5/10/26, 12:02 PM
28NiasnastoZero5,591 (740)10 (-)0 (-)0 (-)0 (-)5/10/26, 12:01 PM
29a j o h n s o n5,591 (743)10 (-)0 (-)0 (-)0 (-)5/10/26, 12:01 PM
30HounaatiozouPrime93255,568 (785)10 (-)0 (-)0 (-)0 (-)5/10/26, 12:02 PM
31SoziaxiPrime68265,568 (784)10 (-)0 (-)0 (-)0 (-)5/10/26, 12:02 PM
32Xiastraiceatriozor5,568 (766)10 (-)0 (-)0 (-)0 (-)5/10/26, 11:03 AM
33l e o walker5,568 (788)10 (-)0 (-)0 (-)0 (-)5/10/26, 12:01 PM
34FierceMagE45,568 (780)10 (-)0 (-)0 (-)0 (-)5/10/26, 12:01 PM
35Frouvrouca38325,568 (773)10 (-)0 (-)0 (-)0 (-)5/10/26, 12:01 PM
36Zotevrioon5,568 (783)10 (-)0 (-)0 (-)0 (-)5/10/26, 12:02 PM
37Streimiapofra5,568 (763)10 (-)0 (-)0 (-)0 (-)5/10/26, 12:02 PM
38premiir5,548 (867)10 (-)0 (-)0 (-)0 (-)5/10/26, 12:01 PM
39belonvemls5,548 (787)10 (-)0 (-)0 (-)0 (-)5/10/26, 12:01 PM
40smurffet5,548 (798)10 (-)0 (-)0 (-)0 (-)5/10/26, 12:01 PM
41FROSTNEXUS8675,548 (779)10 (-)0 (-)0 (-)0 (-)5/10/26, 12:01 PM
42Frefuceveaax5,548 (782)10 (-)0 (-)0 (-)0 (-)5/10/26, 12:01 PM
43Krastevraax5,538 (790)10 (-)0 (-)0 (-)0 (-)5/10/26, 8:02 AM
44SneceiZero5,518 (814)10 (-)0 (-)0 (-)0 (-)5/10/26, 12:02 PM
45DeaweaqeiZero5,453 (845)10 (-)0 (-)0 (-)0 (-)5/10/26, 9:01 AM
46Skaitrea85205,334 (1,009)10 (-)0 (-)0 (-)0 (-)5/10/26, 12:02 PM
47TustriolaafiNova86795,320 (883)10 (-)0 (-)0 (-)0 (-)5/10/26, 4:03 AM
48phantomleviathan555,309 (895)10 (-)0 (-)0 (-)0 (-)5/10/26, 3:01 AM
49ZodiacEmperoR1115,120 (1,050)10 (-)0 (-)0 (-)0 (-)5/10/26, 10:02 AM
50FieryKnight6425,054 (1,160)10 (-)0 (-)0 (-)0 (-)5/10/26, 10:02 AM
51TreiwioPrime5,005 (1,212)10 (-)0 (-)0 (-)0 (-)5/10/26, 9:01 AM
52SteabeifaacaNova4,757 (1,513)10 (-)403 (1,656)0 (-)403 (3,190)5/10/26, 7:03 AM
53Soumaivioskio3,062 (5,328)10 (-)232 (2,085)0 (-)232 (3,769)5/10/26, 11:03 AM
54etherealdemon1,487 (15,704)10 (-)0 (-)0 (-)0 (-)5/10/26, 12:01 PM
55bob brown1,386 (16,760)10 (-)0 (-)0 (-)0 (-)5/10/26, 12:01 PM
56Dingoball1,179 (17,779)10 (-)316 (1,841)0 (-)316 (3,417)5/10/26, 12:01 PM
57LaigraaNova986 (19,259)10 (-)0 (-)0 (-)0 (-)5/10/26, 12:02 PM
58primalronin762920 (19,822)10 (-)0 (-)0 (-)0 (-)5/10/26, 11:02 AM
59CrodrioFlux778 (21,132)10 (-)201 (2,206)0 (-)201 (3,938)5/10/26, 11:03 AM
60GraatreinoVoid319 (28,449)10 (-)0 (-)0 (-)0 (-)5/10/26, 12:01 PM
© 2026 TribalKit